Lava Hot Springs, Idaho, United States (83246)
Lat: 42.62N, Lon: 112.01W
Wx Zone: IDZ023
Local Info
Past Weather Observations for Today

NOTE: This archive is for the closest National Weather Service station to Lava Hot Springs. Information may differ from the station used for current weather conditions.

Click here for Long-term Archive

Time Weather Temperature Dewpoint Humidity Pressure Winds Precip Visibility
15:53
Overcast
41°F / 5°C 34°F / 1°C 76% 30.01 in
(1016 mb)
S 16.1 mph
(S 26 kph)
0.00 in
(0.00 mm)
10SM
15:11
Overcast
41°F / 5°C 34°F / 1°C 76% 30.01 in
(1016 mb)
SSE 12.7 mph
(SSE 20 kph)
- 10SM
14:53
Overcast
41°F / 5°C 34°F / 1°C 76% 30.01 in
(1016 mb)
S 15 mph
(S 24 kph)
- 10SM
13:53
Mostly Cloudy
41°F / 5°C 36°F / 2°C 81% 30.01 in
(1016 mb)
SSE 15 mph
(SSE 24 kph)
0.00 in
(0.00 mm)
10SM
13:49
Mostly Cloudy
39°F / 4°C 36°F / 2°C 87% 30.01 in
(1016 mb)
SSE 16.1 mph
(SSE 26 kph)
0.00 in
(0.00 mm)
10SM
13:10
Overcast
Light Rain
39°F / 4°C 37°F / 3°C 93% 30.01 in
(1016 mb)
SSE 12.7 mph
(SSE 20 kph)
0.00 in
(0.00 mm)
10SM
12:53
Overcast
Light Rain
39°F / 4°C 36°F / 2°C 87% 30.04 in
(1017 mb)
S 13.8 mph
(S 22 kph)
0.00 in
(0.00 mm)
10SM
11:53
Overcast
39°F / 4°C 36°F / 2°C 87% 30.06 in
(1018 mb)
SSE 12.7 mph
(SSE 20 kph)
- 10SM
10:53
Overcast
39°F / 4°C 34°F / 1°C 81% 30.06 in
(1018 mb)
SW 10.4 mph
(SW 17 kph)
0.00 in
(0.00 mm)
10SM
09:53
Overcast
37°F / 3°C 34°F / 1°C 87% 30.06 in
(1018 mb)
SSE 9.2 mph
(SSE 15 kph)
0.00 in
(0.00 mm)
10SM
08:53
Overcast
37°F / 3°C 34°F / 1°C 87% 30.06 in
(1018 mb)
S 4.6 mph
(S 7 kph)
- 10SM
07:57
Overcast
37°F / 3°C 32°F / 0°C 81% 30.06 in
(1018 mb)
Calm - 10SM
07:53
Overcast
37°F / 3°C 32°F / 0°C 81% 30.06 in
(1018 mb)
Calm - 10SM
06:53
Overcast
37°F / 3°C 32°F / 0°C 81% 30.06 in
(1018 mb)
S 8.1 mph
(S 13 kph)
- 10SM
05:53
Overcast
36°F / 2°C 34°F / 1°C 93% 30.06 in
(1018 mb)
SW 6.9 mph
(SW 11 kph)
- 10SM
04:53
Overcast
36°F / 2°C 34°F / 1°C 93% 30.06 in
(1018 mb)
SSE 6.9 mph
(SSE 11 kph)
- 10SM
03:53
Mostly Cloudy
36°F / 2°C 34°F / 1°C 93% 30.09 in
(1019 mb)
SSE 10.4 mph
(SSE 17 kph)
- 10SM
02:53
Overcast
36°F / 2°C 34°F / 1°C 93% 30.09 in
(1019 mb)
SSE 9.2 mph
(SSE 15 kph)
- 10SM
02:38
Overcast
37°F / 3°C 34°F / 1°C 87% 30.09 in
(1019 mb)
SW 9.2 mph
(SW 15 kph)
- 10SM
01:53
Overcast
37°F / 3°C 36°F / 2°C 93% 30.09 in
(1019 mb)
SSE 6.9 mph
(SSE 11 kph)
- 10SM
00:53
Overcast
37°F / 3°C 36°F / 2°C 93% 30.09 in
(1019 mb)
S 11.5 mph
(S 19 kph)
- 10SM
Time Weather Temperature Dewpoint Humidity Pressure Winds Precip Visibility


Weather for websites

WeatherForYou.com, LLC is not responsible for any damages or problems caused by this service. Current weather conditions are obtained from the closest station including government and personal stations which may have varying degrees of accuracy. Weather forecasts are derived from the NOAA NDFD. Like all things, this site belongs to Jesus Christ... He just trusts me to maintain it. If you have any questions or comments email webmaster@weatherforyou.com

Copyright © 2014, WeatherForYou.com LLC. All rights reserved.